Location: Blue Sky Observatory
(43.1153°N, 70.9036°W)
Time: 18:27:00
(UTC-04:00)

Daily predictions for brighter satellites

Satellite Brightness Start Highest point End
(mag) Time Altitude Azimuth Time Altitude Azimuth Time Altitude Azimuth
HJ-1C 4.5 18:58:03 10° SE 19:00:52 25° ENE 19:03:42 10° NNE
SL-16 R/B 2.4 18:56:38 10° S 19:02:05 49° ESE 19:07:33 10° NE
MSX 4.5 19:02:01 10° S 19:07:41 62° W 19:13:24 10° NNW
ATLAS 3B R/B 4.0 19:03:16 10° WSW 19:10:31 45° NW 19:17:33 10° NNE
Meteor 1-29 4.2 19:07:58 10° NE 19:10:46 22° E 19:13:33 10° SSE
Cosmos 292 Rocket 4.1 19:06:33 10° SSW 19:11:19 72° WNW 19:16:10 10° NNE
Cosmos 1953 3.3 19:12:10 10° SE 19:15:29 26° E 19:18:48 10° NNE
Spot 1 4.3 19:12:35 10° SSE 19:17:15 58° ENE 19:21:41 10° N
SeaSat 1 3.9 19:17:21 10° ENE 19:20:12 15° ESE 19:23:01 10° SE
Cosmos 1452 Rocket 3.9 19:15:41 10° N 19:20:45 45° ENE 19:25:45 10° SE
Helios 1A 3.3 19:17:21 10° SE 19:21:20 45° ENE 19:25:21 10° N
Cosmos 2219 Rocket 3.9 19:16:47 10° WSW 19:21:54 35° NW 19:27:06 10° N
METEOR-M 4.1 19:17:59 10° SSE 19:23:17 66° ENE 19:28:37 10° N
COSMO-SKYMED 1 3.8 19:21:19 10° N 19:25:30 47° WNW 19:29:39 10° SW
Cosmos 2278 Rocket 3.7 19:20:45 10° NW 19:26:00 40° WSW 19:31:13 10° S
Cosmos 1805 3.9 19:23:12 10° SSE 19:26:45 33° E 19:30:19 10° NNE
Meteor 1-22 Rocket 4.1 19:21:58 10° S 19:27:20 88° ESE 19:32:40 10° N
NOSS 3-2 (A) 3.5 19:21:22 10° SSW 19:27:23 69° ESE 19:33:58 10° NE
H-2A R/B 4.0 19:25:54 13° ESE 19:28:26 24° ENE 19:31:36 10° NNE
Cosmos 1378 3.1 19:24:53 10° N 19:28:39 88° W 19:32:22 10° S
Cosmos 1544 4.2 19:27:28 10° SE 19:30:31 24° E 19:33:34 10° NE
Cosmos 2297 3.9 19:25:19 10° NNW 19:31:00 75° WSW 19:36:37 10° SSE
Meteor 1-28 Rocket 3.2 19:27:25 10° N 19:31:09 83° WNW 19:34:51 10° SSW
ALOS 2.8 19:26:57 10° SE 19:31:14 37° ENE 19:35:33 10° N
FENGYUN 3A 4.1 19:27:03 10° SE 19:32:03 41° ENE 19:37:04 10° N
OAO 3 Rocket 4.4 19:28:20 10° SW 19:32:27 29° S 19:35:32 16° ESE
ATLAS CENTAUR R/B 3.7 19:28:10 10° SSW 19:33:11 71° SE 19:49:22 10° NE
USA 238 DEB 4.5 19:26:19 10° SW 19:33:13 56° NW 19:40:09 10° NNE
USA 238 4.5 19:26:23 10° SW 19:33:19 57° NW 19:40:16 10° NNE
CZ-4B DEB 3.6 19:33:12 17° SE 19:35:09 31° ENE 19:38:06 10° N
CZ-4C R/B 3.3 19:31:01 10° WSW 19:36:12 45° NW 19:42:04 10° NNE
Meteor 1-24 Rocket 4.2 19:30:46 10° NNW 19:36:23 65° W 19:41:47 10° S
Cosmos 1420 Rocket 4.5 19:38:51 10° N 19:43:52 41° ENE 19:47:17 19° SE
TELKOM 3 4.2 19:42:17 10° NW 19:44:50 30° NNE 19:45:23 27° NE
Cosmos 2369 Rocket 3.4 19:40:16 10° N 19:44:52 25° NE 19:47:05 20° E
Cosmos 2034 Rocket 4.0 19:38:51 10° S 19:45:02 67° E 19:51:19 10° NNE
Cosmos 1766 Rocket 3.4 19:42:07 10° N 19:46:30 82° E 19:50:51 10° S
SJ-6B 4.2 19:43:24 10° S 19:47:10 42° W 19:51:02 10° NNW
Cosmos 1464 Rocket 4.0 19:41:20 10° S 19:47:35 88° W 19:53:49 10° N
Cosmos 1470 4.1 19:49:12 21° ENE 19:49:12 21° ENE 19:51:20 10° NE
FREGAT/IRIS 4.2 19:46:09 10° S 19:49:05 39° W 19:52:01 10° NNW
Cosmos 1603 4.0 19:43:52 10° S 19:49:17 45° ESE 19:54:45 10° NE
Cosmos 1943 Rocket 4.0 19:49:23 10° N 19:52:22 14° NE 19:53:43 13° ENE
Cosmos 1758 3.2 19:52:47 10° S 19:56:52 81° E 20:01:00 10° N
Cosmos 1269 Rocket 4.3 19:54:43 10° S 19:59:42 44° ESE 20:04:43 10° NNE
USA 186 3.9 20:03:22 10° N 20:03:22 10° N 20:03:23 10° N
Cosmos 2333 Rocket 4.5 19:56:41 10° WSW 20:01:23 25° NW 20:06:06 10° N
Spot 2 Rocket 4.0 19:57:12 10° S 20:02:11 61° WSW 20:07:12 10° NNW
Cosmos 1076 Rocket 4.3 19:59:10 10° NNW 20:03:23 52° W 20:07:36 10° S
Cosmos 1048 Rocket 4.3 19:59:15 10° S 20:04:12 42° ESE 20:09:08 10° NE
FengYun 1-2 T 4.3 19:58:47 10° S 20:04:18 80° WSW 20:09:49 10° NNW
ASTEX 1 3.4 20:00:04 10° NNE 20:04:56 58° E 20:09:44 10° S
NOSS 3-2 (C) 3.5 19:58:55 10° SW 20:05:01 85° NW 20:11:44 10° NE
CENTAUR R/B 3.2 20:00:03 10° SSE 20:05:05 28° ESE 20:05:42 28° E
Helios 1B rocket 2.9 20:01:13 10° N 20:05:18 64° WNW 20:09:22 10° SSW
Cosmos-2242 3.0 20:04:52 10° S 20:09:13 84° W 20:13:38 10° N
SL-8 R/B 4.3 20:07:09 10° SSW 20:11:29 35° SE 20:11:40 35° SE
Envisat 3.9 20:13:04 28° ENE 20:13:08 28° ENE 20:17:25 10° N
Cosmos 1674 2.6 20:12:44 10° N 20:16:35 61° E 20:16:58 58° ESE
Meteor 1-21 Rocket 4.4 20:13:56 10° NNW 20:19:29 73° W 20:24:59 10° S
Cosmos 1842 Rocket 3.5 20:18:06 33° SSE 20:19:50 59° E 20:24:08 10° NNE
Cosmos 1500 Rocket 3.5 20:16:21 10° N 20:20:46 67° E 20:21:56 46° SE
Cosmos 1939 Rocket 4.4 20:23:46 22° NNE 20:23:46 22° NNE 20:25:46 10° N
Cosmos 2151 3.9 20:21:12 10° N 20:24:01 32° NE 20:24:01 32° NE
Cosmos 1346 3.9 20:25:15 10° NNW 20:28:07 47° W 20:28:07 47° W
Resurs 01 Rocket 3.7 20:28:48 10° SSW 20:32:37 28° W 20:36:27 10° NW
ATLAS 5 CENTAUR R/B 2.5 20:30:12 10° SW 20:34:56 57° NW 20:40:08 10° NNE
USA 215 3.6 20:31:08 10° NE 20:37:36 64° NW 20:44:01 10° WSW
CZ-2D R/B 4.5 20:43:00 26° SSW 20:44:39 40° W 20:48:22 10° NNW
SL-16 R/B 4.2 20:41:37 10° WSW 20:46:26 28° NW 20:51:18 10° N
ERS-1 Rocket 2.9 20:54:53 70° NE 20:54:53 70° NE 20:59:33 10° N
Cosmos 1110 Rocket 4.5 20:50:16 10° NNW 20:54:39 48° NNE 20:54:39 48° NNE
Cosmos 1655 Rocket 3.8 20:50:35 10° N 20:56:48 66° E 20:57:04 66° E
Cosmos 2279 Rocket 4.3 20:59:22 47° NE 20:59:22 47° NE 21:04:07 10° NNE
SeaSat 1 2.5 20:53:13 10° NNE 20:58:10 74° WNW 21:03:05 10° SW
GP-B 3.5 20:57:00 10° N 21:01:21 61° W 21:01:21 61° W
BREEZE-M DEB (TANK) 3.1 20:52:17 10° WNW 21:02:19 76° N 21:02:28 75° NNE
Cosmos 1092 Rocket 4.5 20:56:35 10° NNW 21:02:40 58° W 21:06:37 22° SSW
Cosmos 839 Rocket 4.1 20:59:56 10° NNW 21:07:45 89° ENE 21:08:43 69° SE
ALOS 4.4 21:05:04 10° SSW 21:08:46 23° W 21:12:31 10° NW
Cosmos 1634 Rocket 4.4 21:12:00 10° SSW 21:18:10 62° W 21:24:21 10° N
Cosmos 2026 Rocket 3.9 21:12:17 10° N 21:18:22 78° W 21:18:46 74° SW
H-2A R/B 4.2 21:31:47 22° N 21:31:47 22° N 21:33:24 10° N
Cosmos 2369 Rocket 2.7 21:23:43 10° NNW 21:28:54 55° W 21:28:54 55° W
CZ-3A R/B 4.5 20:58:28 10° SSW 21:31:56 57° SE 21:32:25 57° SE
Cosmos 1943 Rocket 3.1 21:31:29 10° NNW 21:35:15 43° NNW 21:35:15 43° NNW
H-2A R/B 4.4 21:53:25 15° N 21:53:25 15° N 21:54:21 10° N
CENTAUR R/B 3.4 21:49:10 10° SW 21:59:44 22° NNE 22:02:06 10° NNE
